Location: Barcelona
(41.3830°N, 2.1830°E)
Time: 22:57:45
(UTC+02:00)

AO-85 - Visible Passes

Search period start: 15 October 2019 00:00
Search period end: 25 October 2019 00:00
Orbit: 510 x 773 km, 64.8° (Epoch: 03 October)

Date Brightness Start Highest point End Pass type
(mag) Time Alt. Az. Time Alt. Az. Time Alt. Az.
15 Oct ? 21:07:33 10° NW 21:11:35 76° WSW 21:11:35 76° WSW visible
16 Oct ? 19:52:12 10° NNW 19:55:44 27° NE 19:58:34 13° ESE visible
16 Oct ? 21:32:37 10° NW 21:36:01 27° WSW 21:36:13 26° WSW visible
17 Oct ? 20:16:28 10° NNW 20:20:31 67° NE 20:23:24 17° SE visible
18 Oct ? 20:41:13 10° NW 20:45:03 43° WSW 20:48:31 11° S visible
19 Oct ? 19:25:29 10° NNW 19:29:23 42° NE 19:33:05 10° SE visible
19 Oct ? 21:06:51 10° WNW 21:09:20 16° WSW 21:11:45 10° SSW visible
20 Oct ? 19:49:59 10° NW 19:54:01 72° WSW 19:57:52 10° SSE visible
21 Oct ? 20:15:06 10° WNW 20:18:25 25° WSW 20:21:37 10° S visible
23 Oct ? 19:23:40 10° NW 19:27:27 41° WSW 19:31:04 10° S visible
24 Oct ? 19:49:23 10° WNW 19:51:43 15° WSW 19:54:00 10° SSW visible
